RADUGA 4 [-]

Last updated on June 24, 2019, 3:40 a.m. UTC

1 10987U 78073A   19173.85331758 -.00000253  00000-0  00000-0 0  9992
2 10987  10.8669 310.2288 0011278 335.3130  26.2929  1.00206203 94027
UTC
Height (km)
Latitude
Longitude
Inclination
Orbital Period
UTC large
Height (km)
Speed (km/s)
/
Latitude / Longitude
Inclination (degrees)
Orbital Period (minutes)
Azimuth
Elevation
Range (km)
Doppler Factor
iOS Compass Heading
iOS Angle

Next 30 passes for location: Hong Kong

Rise time Rise Azimuth (degrees) Set time Set Azimuth (degrees) Duration Max altitude (degrees)

No matching passes for this satellites